Regional Weather Roundup
Issued by NWS Huntsville, AL

Home | Current Version | Previous Version | Text Only | Print | Product List | Glossary On
Versions: 1 2 3 4 5 6 7 8 9 10 11 12 13 14 15 16 17 18 19 20 21 22 23 24 25 26 27 28 29 30 31 32 33 34 35 36 37 38 39 40 41 42 43 44 45 46 47 48 49 50
000
ASUS44 KHUN 250410
RWRHUN

WEATHER ROUNDUP FOR THE TENNESSEE VALLEY
NATIONAL WEATHER SERVICE HUNTSVILLE AL
1100 PM CDT THU JUL 24 2014

ALZ001>004-250500-
NORTHWEST ALABAMA

CITY           SKY/WX    TMP DP  RH WIND       PRES   REMARKS
COURTLAND HCN    N/A     70 N/A N/A CALM        N/A
RUSSELLVILLE     N/A     66 N/A N/A MISG        N/A
SHOALS AIRPORT CLEAR     72  64  76 CALM      30.02S
$$

ALZ005>007-016-250500-
NORTH CENTRAL ALABAMA

CITY           SKY/WX    TMP DP  RH WIND       PRES   REMARKS
CULLMAN AG STN   N/A     72 N/A N/A CALM        N/A
DECATUR AP     CLEAR     70  66  87 N6        30.01S
HUNTSVILLE AP  CLEAR     71  66  84 CALM      30.01R
HUN NWS/UAH      N/A     74  62  67 E1          N/A
MERIDIANVILLE  CLEAR     68  63  83 CALM      30.02S
VINEMONT AP    FAIR      69  66  89 CALM      30.05R
$$

ALZ008>010-250500-
NORTHEAST ALABAMA

CITY           SKY/WX    TMP DP  RH WIND       PRES   REMARKS
ALBERTVILLE    CLEAR     70  70 100 N3        30.02R
FORT PAYNE     CLEAR     70  64  83 CALM      30.01R
SCOTTSBORO AP  MOCLDY    72  68  88 CALM      30.01S
SCOTTSBORO HCN   N/A     70 N/A N/A MISG        N/A
VALLEY HEAD      N/A     68 N/A N/A MISG        N/A
$$

TNZ076-096-097-250500-
SOUTHEASTERN MIDDLE TENNESSEE

CITY           SKY/WX    TMP DP  RH WIND       PRES   REMARKS
FAYETTEVILLE   CLEAR     68  63  83 N12       30.02F
TULLAHOMA      CLEAR     66  63  88 N3        30.04F
WINCHESTER     CLEAR     66  66 100 CALM      30.04S
$$

...SURROUNDING SITES...

CITY           SKY/WX    TMP DP  RH WIND       PRES   REMARKS
ATLANTA        PTCLDY    73  70  90 W6        29.99S
ANNISTON       CLEAR     72  71  97 S5        30.00S
BIRMINGHAM     MOCLDY    75  66  73 CALM      30.03R
CHATTANOOGA    PTCLDY    75  64  68 N12       30.02R
CORINTH        FAIR      66  63  88 CALM      30.03R
DALTON         CLEAR     73  68  83 N10       30.00R
GADSDEN        CLEAR     70  66  88 CALM      30.00R
GOLDEN TRNGL   CLEAR     72  64  78 N5        30.03R
HALEYVILLE     FAIR      67  65  93 CALM      30.06R
JACKSON TN     CLEAR     66  61  84 CALM      30.04S
LEWISBURG      FAIR      66  62  87 CALM      30.02S
MEMPHIS        PTCLDY    73  61  65 N7        30.05R
MURFREESBORO   FAIR      70  63  78 NE3       30.03R
NASHVILLE      CLEAR     71  59  65 NE8       30.04R
ROME           CLEAR     74  69  85 NW6       29.98S
SAVANNAH       CLEAR     64  64 100 CALM      30.03S
TUPELO         CLEAR     69  62  78 CALM      30.02S
TUSCALOOSA     CLEAR     78  69  73 N7        30.00R
$$

...GULF COAST WEATHER...

CITY           SKY/WX    TMP DP  RH WIND       PRES   REMARKS
GULFPORT       CLEAR     82  74  76 CALM      29.98R
PASCAGOULA     CLEAR     75  74  96 CALM      30.00R
MOBILE         CLEAR     74  74 100 CALM      30.01R
GULF SHORES    CLEAR     79  74  86 S6        30.00R
PENSACOLA      PTCLDY    80  74  81 S7        30.00R
DESTIN         PTCLDY    83  75  77 SW6       30.00S HX  90
PANAMA CITY    CLEAR     82  76  81 SW10      30.02S
APPALACHICOLA  CLEAR     83  75  77 SW8       30.02S HX  90
$$




USA.gov is the U.S. government's official web portal to all federal, state and local government web resources and services.